Weather History for KGEG - December, 2012

Change the Weather History Date:

Thursday, December 20, 2012

  Actual Average Record
Temperature  
Mean Temperature 37 °F 26 °F  
Max Temperature 42 °F 31 °F 54 °F (1933)
Min Temperature 31 °F 22 °F -18 °F (2008)
Degree Days  
Heating Degree Days 28 39  
Month to date heating degree days 632 745  
Since 1 July heating degree days 2017 2412  
Cooling Degree Days 0 0  
Month to date cooling degree days 0 0  
Year to date cooling degree days 535 450  
Moisture  
Dew Point 26 °F    
Average Humidity 68    
Maximum Humidity 92    
Minimum Humidity 43    
Precipitation  
Precipitation 0.03 in 0.07 in 0.83 in (1940)
Month to date precipitation 1.91 1.55  
Year to date precipitation 20.65 15.81  
Snow  
Snow 1.00 in 0.50 in 7.60 in (1987)
Month to date snowfall 11.9 8.8  
Since 1 July snowfall 17.8 16.3  
Snow Depth 2.00 in    
Sea Level Pressure  
Sea Level Pressure 29.83 in    
Wind  
Wind Speed 14 mph (SSE)    
Max Wind Speed 25 mph    
Max Gust Speed 36 mph    
Visibility 8 miles    
Events Rain , Snow    
T = Trace of Precipitation, MM = Missing Value Source: NWS Daily Summary

Daily Weather History Graph

Daily Weather History Graph

Search for Another Location

Airport or City:

Trip Planner

Search our weather history database for the weather conditions in past years. The results will help you decide how hot, cold, wet, or windy it might be!

Date:

Astronomy

Dec. 20, 2012 Rise Set
Actual Time 7:35 AM PST 4:00 PM PST
Civil Twilight 6:59 AM PST 4:36 PM PST
Nautical Twilight 6:19 AM PST 5:16 PM PST
Astronomical Twilight 5:42 AM PST 5:53 PM PST
Moon 11:41 AM PST (12/20) 12:04 AM PST (12/20)
Length of Visible Light 9h 37m
Length of Day
8h 25m
First Quarter, 56% of the Moon is Illuminated
Dec 20
First Quarter
Dec 28
Full
Jan 4
Last Quarter
Jan 11
New
Jan 18
First Quarter

Hourly Weather History & Observations

Time (PST) Temp. Windchill Dew Point Humidity Pressure Visibility Wind Dir Wind Speed Gust Speed Precip Events Conditions
12:53 AM 32.0 °F 21.2 °F 27.0 °F 82% 29.89 in 7.0 mi SE 16.1 mph 26.5 mph 0.00 in Snow Light Snow
1:53 AM 34.0 °F 22.4 °F 26.1 °F 73% 29.89 in 7.0 mi SSE 20.7 mph 28.8 mph 0.00 in Snow Light Snow
2:20 AM 33.8 °F 22.5 °F 26.6 °F 75% 29.83 in 2.0 mi SSE 19.6 mph 27.6 mph 0.00 in Snow Light Snow
2:53 AM 30.9 °F 18.7 °F 28.0 °F 89% 29.90 in 2.0 mi SSE 19.6 mph 29.9 mph 0.00 in Snow Light Snow
3:53 AM 30.9 °F 19.1 °F 28.0 °F 89% 29.88 in 1.5 mi SE 18.4 mph 32.2 mph 0.01 in Snow Light Snow
4:11 AM 32.0 °F 18.6 °F 28.4 °F 87% 29.80 in 2.0 mi SSE 25.3 mph 34.5 mph 0.00 in Snow Light Snow
4:31 AM 32.0 °F 20.8 °F 28.4 °F 87% 29.81 in 2.0 mi SSE 17.3 mph 32.2 mph 0.00 in Snow Light Snow
4:53 AM 30.9 °F 18.7 °F 28.0 °F 89% 29.87 in 2.0 mi SSE 19.6 mph 31.1 mph 0.00 in Snow Light Snow
5:47 AM 32.0 °F 20.1 °F 28.4 °F 87% 29.80 in 6.0 mi SE 19.6 mph 28.8 mph 0.01 in Snow Light Snow
5:53 AM 33.1 °F 21.5 °F 28.0 °F 82% 29.86 in 7.0 mi SSE 19.6 mph 28.8 mph 0.01 in   Overcast
6:53 AM 33.1 °F 24.4 °F 27.0 °F 78% 29.85 in 10.0 mi SE 11.5 mph - 0.01 in   Overcast
7:53 AM 35.1 °F 30.1 °F 26.1 °F 70% 29.84 in 10.0 mi East 5.8 mph 21.9 mph N/A   Overcast
8:53 AM 36.0 °F 28.5 °F 24.1 °F 62% 29.83 in 10.0 mi ESE 10.4 mph 17.3 mph N/A   Overcast
9:53 AM 39.0 °F 31.4 °F 21.9 °F 50% 29.82 in 10.0 mi SE 12.7 mph 18.4 mph N/A   Overcast
10:53 AM 39.0 °F 30.3 °F 23.0 °F 53% 29.79 in 10.0 mi SE 16.1 mph 26.5 mph N/A   Overcast
11:53 AM 41.0 °F 31.9 °F 21.9 °F 47% 29.76 in 10.0 mi SSE 19.6 mph 27.6 mph N/A   Overcast
12:53 PM 41.0 °F 33.1 °F 21.9 °F 47% 29.76 in 10.0 mi SSE 15.0 mph 23.0 mph N/A   Overcast
1:53 PM 41.0 °F 32.8 °F 21.0 °F 45% 29.75 in 10.0 mi SSE 16.1 mph 24.2 mph N/A   Overcast
2:53 PM 41.0 °F 33.9 °F 21.9 °F 47% 29.75 in 10.0 mi South 12.7 mph 23.0 mph N/A   Overcast
3:53 PM 42.1 °F 35.2 °F 21.9 °F 45% 29.76 in 10.0 mi South 12.7 mph 23.0 mph N/A   Overcast
4:53 PM 41.0 °F 33.9 °F 23.0 °F 49% 29.77 in 10.0 mi SSE 12.7 mph - N/A   Mostly Cloudy
5:53 PM 39.0 °F 31.4 °F 24.1 °F 55% 29.79 in 10.0 mi South 12.7 mph - N/A   Mostly Cloudy
6:53 PM 37.0 °F 31.0 °F 24.1 °F 59% 29.82 in 10.0 mi South 8.1 mph - N/A   Scattered Clouds
7:53 PM 36.0 °F 29.0 °F 25.0 °F 64% 29.84 in 10.0 mi SSW 9.2 mph - N/A   Mostly Cloudy
8:53 PM 36.0 °F 28.5 °F 28.9 °F 76% 29.86 in 10.0 mi SW 10.4 mph - N/A   Overcast
9:53 PM 37.0 °F 28.5 °F 30.9 °F 79% 29.87 in 10.0 mi SSW 13.8 mph - 0.00 in Rain Light Rain
10:53 PM 35.1 °F 27.4 °F 32.0 °F 89% 29.88 in 10.0 mi SW 10.4 mph - 0.00 in   Overcast
11:53 PM 35.1 °F 31.0 °F 32.0 °F 89% 29.89 in 7.0 mi SSE 4.6 mph - 0.00 in Rain , Snow Light Rain